Location: Lane
(33.5226°N, 79.8788°W)
Time: 03:32:38
(UTC+00:00)

Tiros 1 despin weight - Pass Details

Date: 08 October 2022
Orbit: 590 x 637 km, 48.2° (Epoch: 30 November)

Event Time Altitude Azimuth Distance (km) Brightness Sun altitude
Rises 19:34:02 0° 262° (W) 2,816 ? 37.3°
Reaches altitude 10° 19:36:34 10° 275° (W) 1,923 ? 36.9°
Maximum altitude 19:40:21 27° 334° (NNW) 1,159 ? 36.3°
Drops below altitude 10° 19:44:10 10° 33° (NNE) 1,949 ? 35.6°
Sets 19:46:46 0° 45° (NE) 2,864 ? 35.2°
